Location: Unspecified
(42.1900°N, 71.3291°W)
Time: 21:06:52
(UTC-04:00)

Resurs 1-4 Rocket - Visible Passes

Search period start: 20 May 2018 00:00
Search period end: 30 May 2018 00:00
Orbit: 799 x 814 km, 98.5° (Epoch: 20 May)

Date Brightness Start Highest point End Pass type
(mag) Time Alt. Az. Time Alt. Az. Time Alt. Az.
20 May 3.7 01:49:39 10° NE 01:53:53 24° E 01:55:30 21° ESE visible
20 May 2.6 03:28:52 10° N 03:33:53 44° WNW 03:36:35 25° SW visible
21 May 4.3 01:26:18 10° ENE 01:29:02 14° E 01:30:40 12° ESE visible
21 May 2.1 03:04:06 10° N 03:09:24 74° WNW 03:11:45 34° SSW visible
21 May 4.3 04:47:19 10° NW 04:48:17 10° NW 04:49:15 10° WNW visible
22 May 2.2 02:39:32 10° NNE 02:44:50 68° ESE 02:46:55 37° S visible
22 May 3.9 04:20:45 10° NNW 04:24:05 17° WNW 04:27:25 10° W visible
23 May 3.0 02:15:10 10° NNE 02:20:10 41° E 02:22:05 30° SE visible
23 May 3.3 03:55:24 10° N 03:59:47 27° WNW 04:03:10 15° WSW visible
24 May 3.7 01:51:07 10° NE 01:55:25 25° E 01:57:15 21° SE visible
24 May 2.7 03:30:25 10° N 03:35:23 43° WNW 03:38:19 23° SW visible
25 May 4.3 01:27:40 10° NE 01:30:35 15° E 01:32:25 13° ESE visible
25 May 2.1 03:05:38 10° N 03:10:55 71° WNW 03:13:29 31° SSW visible
26 May 2.2 02:41:03 10° NNE 02:46:21 71° ESE 02:48:39 35° S visible
26 May 3.9 04:22:21 10° NNW 04:25:36 17° WNW 04:28:50 10° W visible
27 May 2.9 02:16:40 10° NNE 02:21:43 42° E 02:23:49 29° SSE visible
27 May 3.4 03:56:58 10° N 04:01:18 26° WNW 04:04:54 13° WSW visible
28 May 3.7 01:52:35 10° NE 01:56:58 26° E 01:58:58 20° SE visible
28 May 2.7 03:31:57 10° N 03:36:55 42° WNW 03:40:03 21° SW visible
29 May 4.2 01:29:04 10° NE 01:32:08 15° E 01:34:07 13° ESE visible
29 May 2.2 03:07:09 10° N 03:12:27 69° WNW 03:15:13 29° SSW visible
